Forest City, NC

3:30 PM EDT on September 03, 2015 (GMT -0400)
Forest City-Dunbar Elementary | | Change Station
CLOSE
Current Station
Personal Weather Station
Location: Forest City, NC
Elevation: 966 ft
Nearby Weather Stations

Elev 966 ft 35.35 °N, 81.87 °W | Updated 7 minutes ago

Clear
Clear
92.2 °F
Feels Like 93 °F
N
0.0
Wind Variable Wind from NW
Gusts 7.0 mph

Today
High -- | Low -- °F
--% Chance of Precip.
Yesterday
High -- | Low -- °F
Precip. -- in
7:01 AM 7:51 PM
Waning Gibbous, 67% visible
Pressure 29.97 in
Visibility 10.0 miles
Clouds Clear
Heat Index 93 °F
Dew Point 62 °F
Humidity 37%
Rainfall 0.00 in
Snow Depth Not available.
UV 8 out of 12
Pollen 8.80 out of 12
Air Quality Not available.
Flu Activity Not available.
METAR KFQD 031915Z AUTO 03005KT 10SM CLR 33/14 A2997 RMK AO2 T03300142
Pressure 29.97 in
Visibility 10.0 miles
Clouds Clear
Heat Index 93 °F
Dew Point 62 °F
Humidity 37%
Rainfall 0.00 in
Snow Depth Not available.
UV 8 out of 12
Pollen 8.80 out of 12
Air Quality Not available.
Flu Activity Not available.
METAR KFQD 031915Z AUTO 03005KT 10SM CLR 33/14 A2997 RMK AO2 T03300142

10-Day Weather Forecast

×

Almanac

Astronomy

Sep. 03, 2015 Rise Set
Actual Time
Civil Twilight
Nautical Twilight
Astronomical Twilight
Moon
Length of Visible Light
Length of Day
Tomorrow will be .
, % of the Moon is Illuminated

Today's Extremes

State Highs State Lows

Community

WunderPhotos

Upload Photos

1,852,018 photos uploaded!

WunderBlogs® & News

Nearby

Air Quality

  Air Quality AQ Index Pollutant
Not available.

Snow Depth

Station Depth Elevation

Earthquake Activity

City Distance Mag. Time & Date
Minimum magnitude displayed is 2.5.

Coastal Water Temperatures

Place Temperature

Stations

Nearby Weather Stations

Station Location Temp. Windchill Dew Point Humidity Wind Precip. Elev Updated Type